| time (UTC) | temp C | wind direction | speed KPH | gust KPH | rain 1hr cm | rain 24hr cm | rain mn cm | humidity % | barometer mb |
| 20260906011542 | 27 | 213 | 1.6 | 6.4 | 0.00 | 0.00 | 0.00 | 85 | 1011.7 |
| 20260906011021 | 27 | 232 | 0.0 | 6.4 | 0.00 | 0.00 | 0.00 | 85 | 1011.7 |
| 20260906010520 | 27 | 231 | 3.2 | 6.4 | 0.00 | 0.00 | 0.00 | 84 | 1011.7 |
| 20260906010043 | 27 | 206 | 3.2 | 6.4 | 0.00 | 0.00 | 0.00 | 84 | 1011.6 |
| 20260906005524 | 27 | 202 | 1.6 | 6.4 | 0.00 | 0.00 | 0.00 | 84 | 1011.7 |
| 20260906005020 | 27 | 228 | 1.6 | 6.4 | 0.00 | 0.00 | 0.00 | 85 | 1011.7 |
| 20260906004542 | 27 | 216 | 1.6 | 6.4 | 0.00 | 0.00 | 0.00 | 85 | 1011.8 |
| 20260906004025 | 27 | 0 | 3.2 | 6.4 | 0.00 | 0.00 | 0.00 | 85 | 1011.8 |
| 20260906003527 | 27 | 0 | 1.6 | 4.8 | 0.00 | 0.00 | 0.00 | 84 | 1011.6 |
| 20260906003045 | 27 | 217 | 1.6 | 4.8 | 0.00 | 0.00 | 0.00 | 85 | 1011.6 |
| 20260906002525 | 27 | 225 | 0.0 | 3.2 | 0.00 | 0.00 | 0.00 | 85 | 1011.6 |
| 20260906002020 | 28 | 0 | 0.0 | 4.8 | 0.00 | 0.00 | 0.00 | 84 | 1011.7 |
| 20260906001542 | 28 | 0 | 0.0 | 4.8 | 0.00 | 0.00 | 0.00 | 84 | 1011.6 |
| 20260906001018 | 28 | 236 | 0.0 | 6.4 | 0.00 | 0.00 | 0.00 | 83 | 1011.6 |
| 20260906000518 | 28 | 0 | 1.6 | 6.4 | 0.00 | 0.00 | 0.00 | 83 | 1011.7 |
| 20260906000046 | 28 | 0 | 0.0 | 8.0 | 0.00 | 0.00 | 0.00 | 83 | 1011.8 |
| 20260905235520 | 28 | 0 | 0.0 | 8.0 | 0.00 | 0.00 | 0.00 | 83 | 1011.6 |
| 20260905235018 | 28 | 0 | 0.0 | 8.0 | 0.00 | 0.00 | 0.00 | 83 | 1011.6 |
| 20260905234540 | 28 | 0 | 0.0 | 9.7 | 0.00 | 0.00 | 0.00 | 83 | 1011.6 |
| 20260905234020 | 28 | 224 | 1.6 | 9.7 | 0.00 | 0.00 | 0.00 | 82 | 1011.6 |
| 20260905233524 | 28 | 214 | 1.6 | 6.4 | 0.00 | 0.00 | 0.00 | 82 | 1011.5 |
| 20260905233043 | 28 | 223 | 0.0 | 6.4 | 0.00 | 0.00 | 0.00 | 82 | 1011.5 |
| 20260905232521 | 29 | 0 | 0.0 | 3.2 | 0.00 | 0.00 | 0.00 | 82 | 1011.5 |
| 20260905232019 | 29 | 0 | 0.0 | 3.2 | 0.00 | 0.00 | 0.00 | 82 | 1011.6 |
| 20260905231541 | 29 | 0 | 0.0 | 3.2 | 0.00 | 0.00 | 0.00 | 81 | 1011.5 |
| 20260905231020 | 29 | 0 | 0.0 | 1.6 | 0.00 | 0.00 | 0.00 | 82 | 1011.5 |
| 20260905230520 | 29 | 0 | 0.0 | 4.8 | 0.00 | 0.00 | 0.00 | 81 | 1011.5 |
| 20260905230040 | 29 | 0 | 0.0 | 8.0 | 0.00 | 0.00 | 0.00 | 81 | 1011.5 |
| 20260905225524 | 29 | 0 | 0.0 | 8.0 | 0.00 | 0.00 | 0.00 | 80 | 1011.5 |
| 20260905225019 | 30 | 178 | 3.2 | 8.0 | 0.00 | 0.00 | 0.00 | 80 | 1011.5 |
| 20260905224544 | 30 | 0 | 0.0 | 9.7 | 0.00 | 0.00 | 0.00 | 80 | 1011.5 |
| 20260905224019 | 30 | 0 | 1.6 | 9.7 | 0.00 | 0.00 | 0.00 | 80 | 1011.4 |
| 20260905223524 | 30 | 251 | 3.2 | 9.7 | 0.00 | 0.00 | 0.00 | 78 | 1011.4 |
| 20260905223043 | 30 | 191 | 0.0 | 11.3 | 0.00 | 0.00 | 0.00 | 79 | 1011.5 |
| 20260905222518 | 30 | 223 | 3.2 | 11.3 | 0.00 | 0.00 | 0.00 | 77 | 1011.8 |
| 20260905222017 | 31 | 226 | 3.2 | 8.0 | 0.00 | 0.00 | 0.00 | 76 | 1011.7 |
| 20260905221544 | 31 | 0 | 0.0 | 8.0 | 0.00 | 0.00 | 0.00 | 77 | 1011.7 |
| 20260905221021 | 31 | 0 | 1.6 | 9.7 | 0.00 | 0.00 | 0.00 | 76 | 1011.8 |
| 20260905220526 | 31 | 202 | 3.2 | 9.7 | 0.00 | 0.00 | 0.00 | 75 | 1011.8 |
| 20260905220044 | 31 | 235 | 1.6 | 9.7 | 0.00 | 0.00 | 0.00 | 74 | 1011.7 |
| 20260905215521 | 31 | 0 | 1.6 | 9.7 | 0.00 | 0.00 | 0.00 | 76 | 1011.7 |
| 20260905215022 | 31 | 0 | 1.6 | 9.7 | 0.00 | 0.00 | 0.00 | 77 | 1011.8 |
| 20260905214545 | 31 | 240 | 3.2 | 9.7 | 0.00 | 0.00 | 0.00 | 75 | 1012.0 |
| 20260905214018 | 31 | 209 | 0.0 | 8.0 | 0.00 | 0.00 | 0.00 | 76 | 1012.0 |
| 20260905213520 | 31 | 236 | 1.6 | 8.0 | 0.00 | 0.00 | 0.00 | 76 | 1012.1 |
| 20260905213044 | 31 | 232 | 1.6 | 11.3 | 0.00 | 0.00 | 0.00 | 76 | 1012.0 |
| 20260905212520 | 31 | 186 | 3.2 | 11.3 | 0.00 | 0.00 | 0.00 | 77 | 1012.1 |
| 20260905212023 | 30 | 207 | 0.0 | 6.4 | 0.00 | 0.00 | 0.00 | 79 | 1012.1 |
| 20260905211540 | 30 | 123 | 1.6 | 6.4 | 0.00 | 0.00 | 0.00 | 80 | 1012.4 |
| 20260905211020 | 29 | 209 | 1.6 | 4.8 | 0.00 | 0.00 | 0.00 | 82 | 1012.4 |
| 20260905210520 | 28 | 78 | 1.6 | 4.8 | 0.00 | 0.00 | 0.00 | 83 | 1012.3 |
| 20260905210047 | 28 | 0 | 0.0 | 1.6 | 0.00 | 0.00 | 0.00 | 87 | 1012.1 |
| 20260905205526 | 28 | 0 | 0.0 | 4.8 | 0.00 | 0.00 | 0.00 | 85 | 1012.1 |
| 20260905205021 | 27 | 0 | 0.0 | 4.8 | 0.00 | 0.00 | 0.00 | 85 | 1012.1 |
| 20260905204539 | 27 | 0 | 0.0 | 6.4 | 0.00 | 0.00 | 0.00 | 85 | 1012.0 |
| 20260905204021 | 27 | 0 | 0.0 | 6.4 | 0.00 | 0.00 | 0.00 | 86 | 1012.0 |
| 20260905203518 | 27 | 0 | 0.0 | 6.4 | 0.00 | 0.00 | 0.00 | 85 | 1012.0 |
| 20260905203041 | 28 | 138 | 1.6 | 6.4 | 0.00 | 0.00 | 0.00 | 85 | 1012.2 |
| 20260905202521 | 28 | 0 | 0.0 | 3.2 | 0.00 | 0.00 | 0.00 | 85 | 1012.1 |
| 20260905202018 | 28 | 0 | 0.0 | 6.4 | 0.00 | 0.00 | 0.00 | 86 | 1012.1 |
| 20260905201541 | 27 | 0 | 0.0 | 14.5 | 0.00 | 0.00 | 0.00 | 87 | 1012.2 |
| 20260905201017 | 28 | 158 | 3.2 | 14.5 | 0.00 | 0.00 | 0.00 | 85 | 1012.6 |
| 20260905200521 | 28 | 78 | 3.2 | 14.5 | 0.00 | 0.00 | 0.00 | 83 | 1012.8 |
| 20260905200044 | 29 | 124 | 3.2 | 11.3 | 0.00 | 0.00 | 0.00 | 81 | 1012.6 |
| 20260905195518 | 29 | 0 | 1.6 | 6.4 | 0.00 | 0.00 | 0.00 | 82 | 1012.6 |
| 20260905195019 | 29 | 0 | 0.0 | 6.4 | 0.00 | 0.00 | 0.00 | 81 | 1012.7 |
| 20260905194541 | 29 | 0 | 1.6 | 6.4 | 0.00 | 0.00 | 0.00 | 81 | 1012.7 |
| 20260905194020 | 29 | 252 | 0.0 | 4.8 | 0.00 | 0.00 | 0.00 | 79 | 1012.8 |
| 20260905193520 | 29 | 0 | 0.0 | 6.4 | 0.00 | 0.00 | 0.00 | 78 | 1012.9 |
| 20260905193040 | 30 | 0 | 1.6 | 6.4 | 0.00 | 0.00 | 0.00 | 76 | 1013.0 |
| 20260905192523 | 30 | 82 | 3.2 | 11.3 | 0.00 | 0.00 | 0.00 | 75 | 1013.0 |
| 20260905192024 | 31 | 0 | 0.0 | 11.3 | 0.00 | 0.00 | 0.00 | 74 | 1013.0 |
| 20260905191541 | 31 | 38 | 4.8 | 11.3 | 0.00 | 0.00 | 0.00 | 72 | 1013.0 |
| 20260905191016 | 31 | 215 | 0.0 | 9.7 | 0.00 | 0.00 | 0.00 | 74 | 1013.0 |
| 20260905190516 | 31 | 246 | 3.2 | 9.7 | 0.00 | 0.00 | 0.00 | 73 | 1013.1 |
| 20260905190041 | 31 | 0 | 1.6 | 11.3 | 0.00 | 0.00 | 0.00 | 75 | 1013.0 |
| 20260905185516 | 31 | 192 | 0.0 | 11.3 | 0.00 | 0.00 | 0.00 | 74 | 1013.1 |
| 20260905185019 | 31 | 205 | 4.8 | 11.3 | 0.00 | 0.00 | 0.00 | 75 | 1013.1 |
| 20260905184558 | 31 | 46 | 1.6 | 6.4 | 0.00 | 0.00 | 0.00 | 71 | 1013.2 |
| 20260905184021 | 32 | 285 | 1.6 | 11.3 | 0.00 | 0.00 | 0.00 | 71 | 1013.3 |
| 20260905183524 | 32 | 151 | 3.2 | 11.3 | 0.00 | 0.00 | 0.00 | 76 | 1013.3 |
| 20260905183042 | 31 | 175 | 3.2 | 9.7 | 0.00 | 0.00 | 0.00 | 76 | 1013.4 |
| 20260905182517 | 31 | 233 | 1.6 | 9.7 | 0.00 | 0.00 | 0.00 | 77 | 1013.4 |
| 20260905182019 | 31 | 0 | 3.2 | 9.7 | 0.00 | 0.00 | 0.00 | 73 | 1013.4 |
| 20260905181540 | 31 | 0 | 1.6 | 8.0 | 0.00 | 0.00 | 0.00 | 79 | 1013.4 |
| 20260905181016 | 30 | 0 | 1.6 | 9.7 | 0.00 | 0.00 | 0.00 | 79 | 1013.5 |
| 20260905180516 | 30 | 215 | 3.2 | 9.7 | 0.00 | 0.00 | 0.00 | 77 | 1013.5 |
| 20260905180037 | 30 | 284 | 4.8 | 9.7 | 0.00 | 0.00 | 0.00 | 77 | 1013.7 |
| 20260905175519 | 30 | 256 | 3.2 | 8.0 | 0.00 | 0.00 | 0.00 | 76 | 1013.7 |
| 20260905175019 | 30 | 0 | 0.0 | 9.7 | 0.00 | 0.00 | 0.00 | 75 | 1013.7 |
| 20260905174543 | 30 | 286 | 3.2 | 9.7 | 0.00 | 0.00 | 0.00 | 75 | 1013.7 |
| 20260905174020 | 30 | 270 | 0.0 | 6.4 | 0.00 | 0.00 | 0.00 | 79 | 1013.7 |
| 20260905173520 | 29 | 0 | 0.0 | 0.0 | 0.00 | 0.00 | 0.00 | 81 | 1013.7 |
| 20260905173041 | 29 | 0 | 0.0 | 11.3 | 0.00 | 0.00 | 0.00 | 80 | 1013.8 |
| 20260905172518 | 29 | 0 | 0.0 | 11.3 | 0.00 | 0.00 | 0.00 | 82 | 1013.8 |
| 20260905172020 | 29 | 250 | 4.8 | 11.3 | 0.00 | 0.00 | 0.00 | 80 | 1013.9 |
| 20260905171539 | 30 | 239 | 4.8 | 11.3 | 0.00 | 0.00 | 0.00 | 76 | 1013.9 |
| 20260905171042 | 30 | 219 | 3.2 | 11.3 | 0.00 | 0.00 | 0.00 | 75 | 1013.9 |
| 20260905170519 | 30 | 241 | 4.8 | 9.7 | 0.00 | 0.00 | 0.00 | 75 | 1014.0 |
| 20260905170043 | 31 | 246 | 4.8 | 11.3 | 0.00 | 0.00 | 0.00 | 74 | 1014.1 |
| 20260905165518 | 31 | 270 | 4.8 | 11.3 | 0.00 | 0.00 | 0.00 | 74 | 1014.1 |
| 20260905165019 | 31 | 244 | 3.2 | 11.3 | 0.00 | 0.00 | 0.00 | 73 | 1014.1 |
| 20260905164543 | 31 | 119 | 1.6 | 11.3 | 0.00 | 0.00 | 0.00 | 75 | 1014.1 |
| 20260905164021 | 31 | 0 | 0.0 | 4.8 | 0.00 | 0.00 | 0.00 | 78 | 1014.1 |
| 20260905163520 | 30 | 230 | 0.0 | 3.2 | 0.00 | 0.00 | 0.00 | 75 | 1014.1 |
| 20260905163050 | 30 | 0 | 0.0 | 4.8 | 0.00 | 0.00 | 0.00 | 78 | 1014.1 |
| 20260905162520 | 29 | 0 | 0.0 | 4.8 | 0.00 | 0.00 | 0.00 | 78 | 1014.2 |
| 20260905162019 | 29 | 0 | 0.0 | 4.8 | 0.00 | 0.00 | 0.00 | 80 | 1014.2 |
| 20260905161540 | 29 | 0 | 1.6 | 4.8 | 0.00 | 0.00 | 0.00 | 79 | 1014.2 |
| 20260905161019 | 29 | 0 | 0.0 | 4.8 | 0.00 | 0.00 | 0.00 | 80 | 1014.1 |
| 20260905160520 | 29 | 76 | 0.0 | 6.4 | 0.00 | 0.00 | 0.00 | 79 | 1014.1 |
| 20260905160050 | 30 | 0 | 0.0 | 11.3 | 0.00 | 0.00 | 0.00 | 79 | 1014.2 |
| 20260905155518 | 30 | 13 | 3.2 | 11.3 | 0.00 | 0.00 | 0.00 | 78 | 1014.3 |
| 20260905155020 | 30 | 24 | 3.2 | 11.3 | 0.00 | 0.00 | 0.00 | 80 | 1014.3 |
| 20260905154548 | 30 | 46 | 3.2 | 8.0 | 0.00 | 0.00 | 0.00 | 80 | 1014.2 |
| 20260905154018 | 30 | 84 | 3.2 | 8.0 | 0.00 | 0.00 | 0.00 | 82 | 1014.3 |
| 20260905153521 | 29 | 0 | 0.0 | 4.8 | 0.00 | 0.00 | 0.00 | 82 | 1014.2 |
| 20260905153041 | 28 | 0 | 0.0 | 4.8 | 0.00 | 0.00 | 0.00 | 84 | 1014.2 |
| 20260905152518 | 28 | 257 | 0.0 | 1.6 | 0.00 | 0.00 | 0.00 | 85 | 1014.3 |
| 20260905152023 | 28 | 0 | 0.0 | 3.2 | 0.00 | 0.00 | 0.00 | 83 | 1014.3 |
| 20260905151544 | 28 | 0 | 0.0 | 6.4 | 0.00 | 0.00 | 0.00 | 83 | 1014.3 |
| 20260905151022 | 28 | 79 | 0.0 | 6.4 | 0.00 | 0.00 | 0.00 | 83 | 1014.2 |
| 20260905150519 | 29 | 48 | 1.6 | 6.4 | 0.00 | 0.00 | 0.00 | 82 | 1014.2 |
| 20260905150042 | 29 | 0 | 0.0 | 11.3 | 0.00 | 0.00 | 0.00 | 81 | 1014.3 |
| 20260905145519 | 30 | 235 | 3.2 | 11.3 | 0.00 | 0.00 | 0.00 | 81 | 1014.2 |
| 20260905145018 | 30 | 273 | 1.6 | 11.3 | 0.00 | 0.00 | 0.00 | 79 | 1014.0 |
| 20260905144549 | 30 | 0 | 0.0 | 3.2 | 0.00 | 0.00 | 0.00 | 82 | 1014.1 |
| 20260905144020 | 30 | 0 | 1.6 | 3.2 | 0.00 | 0.00 | 0.00 | 83 | 1014.2 |
| 20260905143520 | 29 | 0 | 0.0 | 3.2 | 0.00 | 0.00 | 0.00 | 86 | 1014.2 |
| 20260905143041 | 29 | 0 | 0.0 | 6.4 | 0.00 | 0.00 | 0.00 | 85 | 1014.1 |
| 20260905142525 | 28 | 0 | 0.0 | 6.4 | 0.00 | 0.00 | 0.00 | 84 | 1014.1 |
| 20260905142024 | 28 | 296 | 0.0 | 4.8 | 0.00 | 0.00 | 0.00 | 83 | 1014.2 |
| 20260905141607 | 29 | 0 | 0.0 | 4.8 | 0.00 | 0.00 | 0.00 | 84 | 1014.2 |
| 20260905141019 | 29 | 46 | 0.0 | 4.8 | 0.00 | 0.00 | 0.00 | 84 | 1014.1 |
| 20260905140519 | 29 | 0 | 1.6 | 3.2 | 0.00 | 0.00 | 0.00 | 87 | 1014.2 |
| 20260905140053 | 28 | 77 | 0.0 | 3.2 | 0.00 | 0.00 | 0.00 | 88 | 1014.1 |
| 20260905135521 | 28 | 0 | 0.0 | 3.2 | 0.00 | 0.00 | 0.00 | 90 | 1014.1 |
| 20260905135021 | 28 | 0 | 0.0 | 4.8 | 0.00 | 0.00 | 0.00 | 89 | 1014.0 |
| 20260905134551 | 28 | 77 | 0.0 | 4.8 | 0.00 | 0.00 | 0.00 | 91 | 1013.9 |
| 20260905134018 | 27 | 77 | 1.6 | 4.8 | 0.00 | 0.00 | 0.00 | 93 | 1014.0 |
| 20260905133517 | 27 | 0 | 1.6 | 4.8 | 0.00 | 0.00 | 0.00 | 94 | 1014.0 |
| 20260905133052 | 27 | 75 | 3.2 | 6.4 | 0.00 | 0.00 | 0.00 | 95 | 1013.9 |
| 20260905132520 | 26 | 71 | 1.6 | 6.4 | 0.00 | 0.00 | 0.00 | 96 | 1013.9 |
| 20260905132018 | 26 | 132 | 1.6 | 4.8 | 0.00 | 0.00 | 0.00 | 97 | 1014.0 |
| 20260905131552 | 26 | 72 | 1.6 | 4.8 | 0.00 | 0.00 | 0.00 | 97 | 1014.0 |
| 20260905131021 | 25 | 80 | 1.6 | 4.8 | 0.00 | 0.00 | 0.00 | 98 | 1014.0 |
| 20260905130519 | 25 | 0 | 0.0 | 6.4 | 0.00 | 0.00 | 0.00 | 98 | 1013.9 |
| 20260905130041 | 25 | 80 | 3.2 | 6.4 | 0.00 | 0.00 | 0.00 | 98 | 1013.9 |
| 20260905125521 | 25 | 80 | 1.6 | 4.8 | 0.00 | 0.00 | 0.00 | 98 | 1013.9 |
| 20260905125018 | 25 | 80 | 1.6 | 4.8 | 0.00 | 0.00 | 0.00 | 99 | 1013.9 |
| 20260905124540 | 25 | 40 | 1.6 | 4.8 | 0.00 | 0.00 | 0.00 | 99 | 1013.9 |
| 20260905124020 | 25 | 0 | 0.0 | 4.8 | 0.00 | 0.00 | 0.00 | 99 | 1013.8 |
| 20260905123520 | 24 | 49 | 0.0 | 3.2 | 0.00 | 0.00 | 0.00 | 99 | 1013.7 |
| 20260905123040 | 24 | 49 | 0.0 | 3.2 | 0.00 | 0.00 | 0.00 | 99 | 1013.8 |
| 20260905122521 | 24 | 0 | 0.0 | 3.2 | 0.00 | 0.00 | 0.00 | 99 | 1013.7 |
| 20260905122019 | 24 | 0 | 1.6 | 4.8 | 0.00 | 0.00 | 0.00 | 99 | 1013.8 |
| 20260905121542 | 24 | 49 | 1.6 | 4.8 | 0.00 | 0.00 | 0.00 | 99 | 1013.7 |
| 20260905121023 | 24 | 49 | 1.6 | 3.2 | 0.00 | 0.00 | 0.00 | 99 | 1013.6 |
| 20260905120524 | 24 | 0 | 0.0 | 3.2 | 0.00 | 0.00 | 0.00 | 99 | 1013.5 |
| 20260905120041 | 23 | 0 | 0.0 | 3.2 | 0.00 | 0.00 | 0.00 | 99 | 1013.4 |
| 20260905115518 | 23 | 0 | 0.0 | 0.0 | 0.00 | 0.00 | 0.00 | 99 | 1013.5 |
| 20260905115020 | 23 | 0 | 0.0 | 3.2 | 0.00 | 0.00 | 0.00 | 99 | 1013.5 |
| 20260905114610 | 23 | 0 | 0.0 | 3.2 | 0.00 | 0.00 | 0.00 | 99 | 1013.5 |
| 20260905114017 | 23 | 49 | 1.6 | 3.2 | 0.00 | 0.00 | 0.00 | 99 | 1013.3 |
| 20260905113520 | 23 | 49 | 1.6 | 3.2 | 0.00 | 0.00 | 0.00 | 99 | 1013.3 |
| 20260905113044 | 23 | 49 | 0.0 | 3.2 | 0.00 | 0.00 | 0.00 | 99 | 1013.3 |
| 20260905112519 | 23 | 49 | 0.0 | 3.2 | 0.00 | 0.00 | 0.00 | 99 | 1013.2 |
| 20260905112020 | 23 | 49 | 0.0 | 3.2 | 0.00 | 0.00 | 0.00 | 99 | 1013.2 |
| 20260905111549 | 23 | 49 | 0.0 | 3.2 | 0.00 | 0.00 | 0.00 | 99 | 1013.2 |
| 20260905111019 | 23 | 49 | 0.0 | 3.2 | 0.00 | 0.00 | 0.00 | 99 | 1013.2 |
| 20260905110520 | 23 | 0 | 0.0 | 3.2 | 0.00 | 0.00 | 0.00 | 99 | 1013.2 |
| 20260905110040 | 23 | 0 | 0.0 | 3.2 | 0.00 | 0.00 | 0.00 | 99 | 1013.0 |
| 20260905105520 | 23 | 49 | 0.0 | 4.8 | 0.00 | 0.00 | 0.00 | 99 | 1013.1 |
| 20260905105017 | 23 | 49 | 0.0 | 4.8 | 0.00 | 0.00 | 0.00 | 99 | 1013.1 |
| 20260905104541 | 23 | 49 | 0.0 | 1.6 | 0.00 | 0.00 | 0.00 | 99 | 1013.1 |
| 20260905104020 | 23 | 0 | 0.0 | 3.2 | 0.00 | 0.00 | 0.00 | 99 | 1013.1 |
| 20260905103526 | 23 | 0 | 0.0 | 3.2 | 0.00 | 0.00 | 0.00 | 99 | 1013.1 |
| 20260905103040 | 23 | 0 | 0.0 | 3.2 | 0.00 | 0.00 | 0.00 | 99 | 1013.0 |
| 20260905102518 | 23 | 0 | 0.0 | 3.2 | 0.00 | 0.00 | 0.00 | 99 | 1013.1 |
| 20260905102019 | 23 | 49 | 0.0 | 3.2 | 0.00 | 0.00 | 0.00 | 99 | 1013.0 |
| 20260905101541 | 23 | 0 | 0.0 | 3.2 | 0.00 | 0.00 | 0.00 | 99 | 1013.1 |
| 20260905101019 | 23 | 49 | 1.6 | 3.2 | 0.00 | 0.00 | 0.00 | 99 | 1013.1 |
| 20260905100520 | 23 | 49 | 1.6 | 3.2 | 0.00 | 0.00 | 0.00 | 99 | 1013.0 |
| 20260905095517 | 23 | 0 | 0.0 | 3.2 | 0.00 | 0.00 | 0.00 | 99 | 1013.1 |
| 20260905095017 | 23 | 49 | 0.0 | 1.6 | 0.00 | 0.00 | 0.00 | 99 | 1013.0 |
| 20260905094542 | 23 | 0 | 0.0 | 1.6 | 0.00 | 0.00 | 0.00 | 99 | 1013.0 |
| 20260905094017 | 23 | 0 | 0.0 | 1.6 | 0.00 | 0.00 | 0.00 | 99 | 1013.1 |
| 20260905093520 | 23 | 0 | 0.0 | 0.0 | 0.00 | 0.00 | 0.00 | 99 | 1013.0 |
| 20260905093044 | 23 | 0 | 0.0 | 0.0 | 0.00 | 0.00 | 0.00 | 99 | 1012.9 |
| 20260905092523 | 23 | 0 | 0.0 | 0.0 | 0.00 | 0.00 | 0.00 | 98 | 1012.9 |
| 20260905092022 | 23 | 0 | 0.0 | 0.0 | 0.00 | 0.00 | 0.00 | 99 | 1013.0 |
| 20260905091555 | 23 | 0 | 0.0 | 0.0 | 0.00 | 0.00 | 0.00 | 99 | 1012.9 |
| 20260905091019 | 23 | 0 | 0.0 | 0.0 | 0.00 | 0.00 | 0.00 | 98 | 1012.9 |
| 20260905090518 | 23 | 0 | 0.0 | 0.0 | 0.00 | 0.00 | 0.00 | 98 | 1012.9 |
| 20260905090040 | 23 | 0 | 0.0 | 0.0 | 0.00 | 0.00 | 0.00 | 98 | 1012.9 |
| 20260905085519 | 23 | 0 | 0.0 | 0.0 | 0.00 | 0.03 | 0.00 | 98 | 1013.0 |
| 20260905085018 | 23 | 0 | 0.0 | 0.0 | 0.00 | 0.03 | 0.00 | 98 | 1013.0 |
| 20260905084538 | 23 | 0 | 0.0 | 0.0 | 0.00 | 0.03 | 0.00 | 98 | 1013.0 |
| 20260905084017 | 23 | 0 | 0.0 | 0.0 | 0.00 | 0.03 | 0.00 | 98 | 1012.9 |
| 20260905083524 | 23 | 0 | 0.0 | 0.0 | 0.00 | 0.03 | 0.00 | 98 | 1012.8 |
| 20260905083038 | 23 | 0 | 0.0 | 0.0 | 0.00 | 0.03 | 0.00 | 98 | 1012.8 |
| 20260905082519 | 23 | 0 | 0.0 | 0.0 | 0.00 | 0.03 | 0.00 | 98 | 1012.8 |
| 20260905082020 | 23 | 0 | 0.0 | 0.0 | 0.00 | 0.03 | 0.00 | 98 | 1012.7 |
| 20260905081542 | 23 | 0 | 0.0 | 0.0 | 0.00 | 0.03 | 0.00 | 98 | 1012.7 |
| 20260905081018 | 23 | 0 | 0.0 | 0.0 | 0.00 | 0.03 | 0.00 | 98 | 1012.7 |
| 20260905080519 | 23 | 0 | 0.0 | 1.6 | 0.00 | 0.03 | 0.00 | 98 | 1012.7 |
| 20260905080042 | 23 | 0 | 0.0 | 3.2 | 0.00 | 0.03 | 0.00 | 98 | 1012.8 |
| 20260905075520 | 23 | 0 | 0.0 | 4.8 | 0.00 | 0.03 | 0.00 | 98 | 1012.8 |
| 20260905075020 | 23 | 49 | 0.0 | 4.8 | 0.00 | 0.03 | 0.00 | 98 | 1012.9 |
| 20260905074553 | 23 | 74 | 0.0 | 3.2 | 0.00 | 0.03 | 0.00 | 98 | 1012.9 |
| 20260905074020 | 23 | 0 | 0.0 | 4.8 | 0.00 | 0.03 | 0.00 | 98 | 1012.9 |
| 20260905073519 | 23 | 30 | 1.6 | 4.8 | 0.00 | 0.03 | 0.00 | 98 | 1012.8 |
| 20260905073058 | 23 | 30 | 0.0 | 3.2 | 0.00 | 0.03 | 0.00 | 98 | 1012.9 |
| 20260905072520 | 23 | 0 | 0.0 | 1.6 | 0.00 | 0.03 | 0.00 | 98 | 1012.9 |
| 20260905072019 | 23 | 0 | 0.0 | 1.6 | 0.00 | 0.03 | 0.00 | 98 | 1012.8 |
| 20260905071542 | 23 | 0 | 0.0 | 1.6 | 0.00 | 0.03 | 0.00 | 98 | 1012.8 |
| 20260905071018 | 23 | 0 | 0.0 | 0.0 | 0.00 | 0.03 | 0.00 | 98 | 1012.8 |
| 20260905070519 | 23 | 0 | 0.0 | 0.0 | 0.00 | 0.03 | 0.00 | 98 | 1012.7 |
| 20260905070041 | 23 | 0 | 0.0 | 0.0 | 0.00 | 0.03 | 0.00 | 98 | 1012.8 |
| 20260905065517 | 23 | 0 | 0.0 | 1.6 | 0.00 | 0.03 | 0.00 | 98 | 1012.8 |
| 20260905065022 | 24 | 0 | 0.0 | 3.2 | 0.00 | 0.03 | 0.00 | 98 | 1012.7 |
| 20260905064554 | 24 | 0 | 0.0 | 3.2 | 0.00 | 0.03 | 0.00 | 98 | 1012.6 |
| 20260905064016 | 24 | 0 | 0.0 | 0.0 | 0.00 | 0.03 | 0.00 | 98 | 1012.6 |
| 20260905063517 | 24 | 0 | 0.0 | 0.0 | 0.00 | 0.03 | 0.00 | 98 | 1012.6 |
| 20260905063042 | 24 | 0 | 0.0 | 0.0 | 0.00 | 0.03 | 0.00 | 98 | 1012.5 |
| 20260905062524 | 24 | 0 | 0.0 | 0.0 | 0.00 | 0.03 | 0.00 | 98 | 1012.5 |
| 20260905062023 | 24 | 0 | 0.0 | 0.0 | 0.00 | 0.03 | 0.00 | 97 | 1012.6 |
| 20260905061538 | 24 | 0 | 0.0 | 0.0 | 0.00 | 0.03 | 0.00 | 98 | 1012.5 |
| 20260905061020 | 24 | 0 | 0.0 | 0.0 | 0.00 | 0.03 | 0.00 | 97 | 1012.7 |
| 20260905060518 | 24 | 0 | 0.0 | 0.0 | 0.00 | 0.03 | 0.00 | 97 | 1012.8 |
| 20260905060047 | 24 | 0 | 0.0 | 0.0 | 0.00 | 0.03 | 0.00 | 98 | 1012.7 |
| 20260905055520 | 24 | 0 | 0.0 | 0.0 | 0.00 | 0.23 | 0.00 | 98 | 1012.8 |
| 20260905055017 | 24 | 0 | 0.0 | 0.0 | 0.00 | 0.23 | 0.00 | 98 | 1012.7 |
| 20260905054543 | 24 | 0 | 0.0 | 0.0 | 0.00 | 0.23 | 0.00 | 97 | 1012.7 |
| 20260905054020 | 24 | 0 | 0.0 | 0.0 | 0.00 | 0.23 | 0.00 | 97 | 1012.8 |
| 20260905053519 | 24 | 0 | 0.0 | 0.0 | 0.00 | 0.23 | 0.00 | 97 | 1012.8 |
| 20260905053042 | 24 | 0 | 0.0 | 0.0 | 0.00 | 0.23 | 0.00 | 97 | 1012.9 |
| 20260905052520 | 24 | 0 | 0.0 | 0.0 | 0.00 | 0.23 | 0.00 | 97 | 1013.0 |
| 20260905052019 | 24 | 0 | 0.0 | 0.0 | 0.00 | 0.23 | 0.00 | 97 | 1012.9 |
| 20260905051554 | 24 | 0 | 0.0 | 0.0 | 0.00 | 0.23 | 0.00 | 97 | 1013.0 |
| 20260905051018 | 24 | 0 | 0.0 | 0.0 | 0.00 | 0.23 | 0.00 | 97 | 1013.0 |
| 20260905050521 | 24 | 0 | 0.0 | 0.0 | 0.00 | 0.23 | 0.00 | 97 | 1013.1 |
| 20260905050043 | 24 | 0 | 0.0 | 0.0 | 0.00 | 0.23 | 0.00 | 97 | 1013.3 |
| 20260905045523 | 24 | 0 | 0.0 | 1.6 | 0.00 | 0.23 | 0.23 | 97 | 1013.3 |
| 20260905045018 | 24 | 0 | 0.0 | 3.2 | 0.00 | 0.23 | 0.23 | 97 | 1013.3 |
| 20260905044559 | 24 | 30 | 0.0 | 4.8 | 0.00 | 0.23 | 0.23 | 97 | 1013.4 |
| 20260905044018 | 24 | 30 | 1.6 | 4.8 | 0.00 | 0.23 | 0.23 | 97 | 1013.5 |
| 20260905043523 | 24 | 30 | 0.0 | 4.8 | 0.00 | 0.23 | 0.23 | 97 | 1013.5 |
| 20260905043039 | 24 | 0 | 0.0 | 4.8 | 0.00 | 0.23 | 0.23 | 97 | 1013.7 |
| 20260905042518 | 24 | 0 | 1.6 | 4.8 | 0.00 | 0.23 | 0.23 | 97 | 1013.7 |
| 20260905042019 | 24 | 30 | 1.6 | 4.8 | 0.00 | 0.23 | 0.23 | 97 | 1013.6 |
| 20260905041543 | 24 | 30 | 0.0 | 4.8 | 0.00 | 0.23 | 0.23 | 97 | 1013.7 |
| 20260905041019 | 24 | 30 | 1.6 | 4.8 | 0.00 | 0.23 | 0.23 | 97 | 1013.8 |
| 20260905040518 | 24 | 86 | 1.6 | 4.8 | 0.00 | 0.23 | 0.23 | 96 | 1013.8 |
| 20260905040047 | 24 | 86 | 0.0 | 4.8 | 0.00 | 0.23 | 0.23 | 96 | 1013.7 |
| 20260905035518 | 24 | 86 | 1.6 | 4.8 | 0.00 | 0.23 | 0.23 | 96 | 1013.7 |
| 20260905035018 | 24 | 0 | 0.0 | 3.2 | 0.00 | 0.23 | 0.23 | 96 | 1013.9 |
| 20260905034600 | 24 | 0 | 0.0 | 3.2 | 0.00 | 0.23 | 0.23 | 96 | 1013.9 |
| 20260905034019 | 24 | 0 | 0.0 | 3.2 | 0.00 | 0.23 | 0.23 | 96 | 1014.0 |
| 20260905033519 | 24 | 86 | 1.6 | 3.2 | 0.00 | 0.23 | 0.23 | 96 | 1014.0 |
| 20260905033100 | 24 | 86 | 0.0 | 1.6 | 0.00 | 0.23 | 0.23 | 96 | 1014.1 |
| 20260905032519 | 24 | 0 | 0.0 | 4.8 | 0.00 | 0.23 | 0.23 | 96 | 1014.1 |
| 20260905032019 | 24 | 0 | 0.0 | 4.8 | 0.00 | 0.23 | 0.23 | 96 | 1014.1 |
| 20260905031542 | 24 | 86 | 1.6 | 4.8 | 0.00 | 0.23 | 0.23 | 96 | 1013.9 |
| 20260905031020 | 24 | 86 | 0.0 | 3.2 | 0.00 | 0.23 | 0.23 | 96 | 1014.0 |
| 20260905030521 | 24 | 0 | 0.0 | 4.8 | 0.00 | 0.23 | 0.23 | 96 | 1014.0 |
| 20260905030040 | 24 | 0 | 0.0 | 4.8 | 0.00 | 0.23 | 0.23 | 96 | 1014.1 |
| 20260905025522 | 24 | 48 | 1.6 | 6.4 | 0.00 | 0.23 | 0.23 | 96 | 1014.1 |
| 20260905025022 | 25 | 90 | 1.6 | 6.4 | 0.00 | 0.23 | 0.23 | 96 | 1014.1 |
| 20260905024540 | 24 | 57 | 1.6 | 4.8 | 0.00 | 0.23 | 0.23 | 96 | 1014.2 |
| 20260905024022 | 25 | 63 | 0.0 | 4.8 | 0.00 | 0.23 | 0.23 | 95 | 1014.2 |
| 20260905023519 | 25 | 0 | 0.0 | 4.8 | 0.00 | 0.23 | 0.23 | 95 | 1014.1 |
| 20260905023119 | 25 | 30 | 0.0 | 3.2 | 0.00 | 0.23 | 0.23 | 95 | 1014.0 |
| 20260905022519 | 25 | 36 | 1.6 | 3.2 | 0.00 | 0.23 | 0.23 | 95 | 1014.0 |
| 20260905022018 | 25 | 0 | 0.0 | 0.0 | 0.00 | 0.23 | 0.23 | 95 | 1014.0 |
| 20260905021542 | 25 | 0 | 0.0 | 4.8 | 0.00 | 0.23 | 0.23 | 95 | 1014.0 |
| 20260905021018 | 25 | 0 | 0.0 | 4.8 | 0.00 | 0.23 | 0.23 | 95 | 1014.0 |
| 20260905020520 | 25 | 0 | 0.0 | 3.2 | 0.00 | 0.23 | 0.23 | 94 | 1013.9 |
| 20260905020040 | 25 | 0 | 0.0 | 4.8 | 0.00 | 0.23 | 0.23 | 94 | 1013.9 |
| 20260905015517 | 25 | 61 | 1.6 | 4.8 | 0.00 | 0.23 | 0.23 | 94 | 1013.8 |
| 20260905015024 | 25 | 31 | 1.6 | 6.4 | 0.00 | 0.23 | 0.23 | 94 | 1013.8 |
| 20260905014540 | 25 | 30 | 1.6 | 6.4 | 0.00 | 0.23 | 0.23 | 94 | 1013.8 |
| 20260905014019 | 25 | 0 | 1.6 | 6.4 | 0.00 | 0.23 | 0.23 | 93 | 1013.7 |
| 20260905013518 | 25 | 23 | 1.6 | 4.8 | 0.00 | 0.23 | 0.23 | 93 | 1013.7 |
| 20260905013042 | 25 | 0 | 0.0 | 4.8 | 0.00 | 0.23 | 0.23 | 93 | 1013.7 |
| 20260905012519 | 25 | 41 | 1.6 | 4.8 | 0.00 | 0.23 | 0.23 | 93 | 1013.7 |
| 20260905012020 | 25 | 0 | 1.6 | 4.8 | 0.00 | 0.23 | 0.23 | 92 | 1013.7 |